sat.trackr.live / text

‹ back to catalog

STARLINK-2757

NORAD 48604 · 2021-041BD

PAYLOAD ACTIVE UNKNOWN

§ Identity

Operator
Country
US
Launch date
2021-05-15
Launch site
AFETR
Launch vehicle
Mass (kg)
RCS (m²)

Purposes: comms

External: N2YO · Heavens-Above · Gunter

§ Orbital elements

Epoch: 2026-05-25T00:38:05.125344Z

Period
94.01 min
Inclination
53.1604°
Eccentricity
0.0001003
Mean motion
15.31705400 rev/d
Perigee alt
470.0 km
Apogee alt
471.4 km
Semi-major
6,848.9 km
B*
1.0209e-5
RAAN
153.8793°
Arg perigee
76.0877°
Mean anomaly
284.0236°
Rev number
27,791

§ Raw data

STARLINK-27571 48604U 21041BD  26145.02644821 -.00000048  00000+0  10209-4 0  99932 48604  53.1604 153.8793 0001003  76.0877 284.0236 15.31705400277915

JSON: /api/v1/satellites/48604 · /tle

For live sub-satellite position, see the globe view (requires WebGL).

§ Visibility from observer

Set your observer location to see the next 7 days of passes ≥ 10°. The values pass through the URL so the page stays shareable.

No JS? Fill the form by hand. The geolocation button needs JavaScript.